Flag for United Kingdom Weather past 2 weeks in Northampton, England, United Kingdom

Now
68 °F

Sunny.


Feels Like: 68 °F
Forecast: 56 / 70 °F
Wind: 13 mph from Southwest

Location: Cranfield

Current Time: Jul 6, 2015 at 5:44:47 PM

Latest Report: Jul 6, 2015 at 5:20 PM


Visibility: 10 mi

Pressure: 30.01 "Hg

Humidity: 56%

Dew point: 52 °F

Location of NorthamptonLocation

Historic Weather in Northampton — Graph

°F

Northampton temperature yesterday

Maximum temperature yesterday: 72 °F (at 2:20 PM)
Minimum temperature yesterday: 61 °F (at 4:20 PM)
Average temperature yesterday: 65 °F

Past Weeks' High & Low Weather Summary

 TemperatureHumidityPressure
High93 °F (Jul 1, 3:50 PM)94% (Jun 28, 11:50 AM)30.30 "Hg (Jun 28, 11:50 AM)
Low55 °F (Jun 22, 9:50 AM)25% (Jun 30, 3:50 PM)29.77 "Hg (Jun 22, 11:50 AM)
Average69 °F60%30.05 "Hg
* Reported Jun 21 4:20 PM — Jul 6 4:20 PM, Northampton, Weather by CustomWeather, © 2015

Note: Actual official high and low records may vary slightly from our data, if they occured in-between our weather recording intervals... More about our weather records

Advertising

Northampton weather history for previous 24 hours

 ConditionsComfort  
Time TempWeatherWind HumidityBarometerVisibility
4:20 PM
Mon, Jul 6
66 °FSunny.15 mph56%30.04 "Hg10 mi
3:50 PM68 °FPassing clouds.14 mph53%30.04 "HgN/A
3:20 PM68 °FPassing clouds.14 mph56%30.04 "HgN/A
2:50 PM68 °FPassing clouds.14 mph60%30.04 "HgN/A
2:20 PM66 °FPassing clouds.14 mph64%30.04 "HgN/A
1:50 PM66 °FSprinkles. Scattered clouds.14 mph64%30.07 "HgN/A
1:20 PM66 °FPassing clouds.14 mph60%30.07 "HgN/A
12:50 PM68 °FScattered clouds.16 mph56%30.07 "HgN/A
12:20 PM68 °FScattered clouds.17 mph56%30.07 "HgN/A
11:50 AM66 °FScattered clouds.16 mph56%30.09 "HgN/A
11:20 AM66 °FPassing clouds.16 mph56%30.09 "HgN/A
10:50 AM64 °FPassing clouds.10 mph60%30.09 "HgN/A
10:20 AM64 °FPassing clouds.14 mph64%30.09 "HgN/A
9:50 AM63 °FPassing clouds.14 mph68%30.09 "HgN/A
9:20 AM61 °FPassing clouds.15 mph77%30.09 "HgN/A
8:50 AM61 °FPassing clouds.12 mph77%30.09 "HgN/A
8:20 AM59 °FPassing clouds.10 mph82%30.09 "HgN/A
7:50 AM57 °FSunny.10 mph88%30.09 "Hg10 mi
7:20 PM
Sun, Jul 5
64 °FPassing clouds.12 mph64%29.98 "HgN/A
6:50 PM63 °FPassing clouds.13 mph68%29.98 "HgN/A
6:20 PM63 °FPassing clouds.16 mph73%29.98 "HgN/A
5:50 PM63 °FPartly sunny.14 mph68%29.98 "HgN/A
5:20 PM63 °FScattered showers. Scattered clouds.14 mph68%29.98 "HgN/A
Weather by CustomWeather, © 2015

See weather overviewHow to use our weather pages